Location: Mexico
(19.4000°N, 99.1500°W)
Time: 02:04:12
(UTC-06:00)

ISS - Pass Details

Date: 20 November 2017
Orbit: 402 x 407 km, 51.6° (Epoch: 21 November)

Event Time Altitude Azimuth Distance (km) Brightness Sun altitude
Exits shadow 06:08:11 10° 320° (NW) 1,444 -1.5 -9.6°
Maximum altitude 06:11:25 85° 235° (SW) 404 -3.9 -8.9°
Drops below altitude 10° 06:14:39 10° 144° (SE) 1,441 -0.1 -8.2°
Sets 06:16:43 0° 143° (SE) 2,298 1.0 -7.7°
